GW3934 Weather Reports


time (UTC)temp
C
wind
direction
speed
KPH
gust
KPH
rain 1hr
cm
rain 24hr
cm
rain mn
cm
humidity
%
barometer
mb
20260506071217 17 0.0 4.8 0.00 0.05 0.00 75 1010.3
20260506070237 17 199 1.6 6.4 0.00 0.05 0.00 75 1010.4
20260506062217 18 0.0 1.6 0.00 0.05 0.00 72 1010.4
20260506061217 18 0.0 3.2 0.00 0.05 0.00 71 1010.4
20260506060237 18 236 0.0 3.2 0.00 0.05 0.00 71 1010.3
20260506051237 18 0.0 0.0 0.00 0.05 0.00 67 1011.0
20260506050216 18 282 0.0 3.2 0.00 0.05 0.00 67 1011.1
20260506044216 18 0.0 3.2 0.00 0.05 0.00 65 1011.0
20260506043216 19 235 1.6 6.4 0.00 0.05 0.00 65 1011.0
20260506042217 19 241 1.6 6.4 0.00 0.05 0.00 65 1011.1
20260506041316 19 184 1.6 9.7 0.00 0.05 0.00 64 1011.0
20260506040316 19 225 0.0 4.8 0.00 0.05 0.00 63 1010.9
20260506035317 19 147 0.0 6.4 0.00 0.05 0.05 63 1010.8
20260506034317 19 260 0.0 1.6 0.00 0.05 0.05 62 1011.0
20260506033317 19 0.0 6.4 0.00 0.05 0.05 62 1010.9
20260506032317 20 0.0 1.6 0.00 0.05 0.05 61 1010.8
20260506031317 20 246 0.0 3.2 0.00 0.05 0.05 61 1010.8
20260506030317 20 229 1.6 3.2 0.00 0.05 0.05 61 1010.7
20260506025317 20 125 0.0 3.2 0.00 0.05 0.05 60 1010.5
20260506024317 20 226 1.6 6.4 0.00 0.05 0.05 59 1010.7
20260506023317 20 176 1.6 3.2 0.00 0.05 0.05 58 1010.8
20260506022315 21 238 0.0 8.0 0.00 0.05 0.05 56 1010.7
20260506021315 21 212 3.2 9.7 0.00 0.05 0.05 53 1010.7
20260506020315 21 200 0.0 4.8 0.00 0.05 0.05 51 1010.6
20260506015316 21 146 0.0 3.2 0.00 0.05 0.05 50 1010.6
20260506014315 22 0.0 4.8 0.00 0.05 0.05 48 1010.4
20260506013315 22 231 1.6 3.2 0.00 0.05 0.05 47 1010.3
20260506012315 22 226 1.6 12.9 0.00 0.05 0.05 45 1010.1
20260506011335 22 0.0 9.7 0.00 0.05 0.05 44 1010.0
20260506010316 22 244 0.0 3.2 0.00 0.05 0.05 44 1010.0
20260506005315 23 0.0 8.0 0.00 0.05 0.05 44 1009.8
20260506004316 23 0.0 1.6 0.00 0.05 0.05 43 1009.9
20260506003316 23 174 0.0 6.4 0.00 0.05 0.05 41 1009.7
20260506002315 23 240 1.6 8.0 0.00 0.05 0.05 40 1009.6
20260506001316 23 215 0.0 4.8 0.00 0.05 0.05 39 1009.5
20260506000315 23 211 0.0 6.4 0.00 0.05 0.05 38 1009.4
20260505235315 24 236 0.0 3.2 0.00 0.05 0.05 37 1009.4
20260505234316 24 0.0 4.8 0.00 0.05 0.05 36 1009.3
20260505233315 24 242 1.6 4.8 0.00 0.05 0.05 36 1009.2
20260505232315 24 0.0 0.0 0.00 0.05 0.05 35 1009.2
20260505231316 25 0.0 0.0 0.00 0.05 0.05 34 1009.0
20260505230315 25 251 0.0 1.6 0.00 0.05 0.05 34 1009.0
20260505225315 25 229 1.6 4.8 0.00 0.05 0.05 32 1008.7
20260505224315 25 210 1.6 4.8 0.00 0.05 0.05 32
20260505223335 25 243 1.6 6.4 0.00 0.05 0.05 31
20260505222355 25 211 3.2 8.0 0.00 0.05 0.05 30
20260505221315 25 262 1.6 6.4 0.00 0.05 0.05 31
20260505220316 26 0.0 1.6 0.00 0.05 0.05 31
20260505215315 26 231 1.6 6.4 0.00 0.05 0.05 30
20260505214315 26 224 1.6 6.4 0.00 0.05 0.05 31
20260505213315 26 233 1.6 11.3 0.00 0.05 0.05 31
20260505212316 26 245 3.2 9.7 0.00 0.05 0.05 30
20260505211315 27 234 1.6 8.0 0.00 0.05 0.05 32
20260505210316 27 0.0 12.9 0.00 0.05 0.05 32
20260505205315 27 238 1.6 9.7 0.00 0.05 0.05 30
20260505204315 27 233 1.6 8.0 0.00 0.05 0.05 32
20260505203315 27 237 3.2 6.4 0.00 0.05 0.05 32
20260505202315 27 250 1.6 6.4 0.00 0.05 0.05 33 1008.2
20260505201315 26 253 1.6 6.4 0.00 0.05 0.05 33 1008.1
20260505200315 26 244 1.6 11.3 0.00 0.05 0.05 33 1008.2
20260505195335 27 236 3.2 6.4 0.00 0.05 0.05 33 1008.3
20260505194317 27 243 4.8 12.9 0.00 0.05 0.05 32 1008.3
20260505193315 27 235 0.0 4.8 0.00 0.05 0.05 35 1008.5
20260505192317 27 219 0.0 3.2 0.00 0.05 0.05 35 1008.9
20260505191316 27 182 1.6 4.8 0.00 0.05 0.05 36 1009.0
20260505190317 27 187 0.0 1.6 0.00 0.05 0.05 36 1009.0
20260505185318 27 184 3.2 14.5 0.00 0.05 0.05 33 1009.0
20260505184317 27 220 4.8 12.9 0.00 0.05 0.05 35 1009.3
20260505183317 27 209 1.6 4.8 0.00 0.05 0.05 36 1009.6
20260505182317 27 197 8.0 11.3 0.00 0.05 0.05 36 1009.5
20260505182116 27 211 1.6 20.9 0.00 0.05 0.05 37 1009.4
20260505181116 27 241 1.6 8.0 0.00 0.05 0.05 37 1009.6
20260505180135 27 263 0.0 8.0 0.00 0.05 0.05 38 1009.6
20260505175116 27 244 0.0 4.8 0.00 0.05 0.05 38 1009.7
20260505174116 27 249 1.6 6.4 0.00 0.05 0.05 37 1009.8
20260505173115 27 0.0 8.0 0.00 0.05 0.05 37 1010.0
20260505172116 27 253 1.6 9.7 0.00 0.05 0.05 39 1010.1
20260505171136 27 243 0.0 1.6 0.00 0.05 0.05 42 1010.2
20260505170116 27 207 3.2 11.3 0.00 0.05 0.05 43 1010.3
20260505165135 27 238 0.0 4.8 0.00 0.05 0.05 41 1010.5
20260505164136 26 0.0 1.6 0.00 0.05 0.05 43 1010.7
20260505163115 26 253 0.0 3.2 0.00 0.05 0.05 42 1010.8
20260505162116 26 48 0.0 9.7 0.00 0.05 0.05 47 1010.8
20260505161116 26 288 1.6 4.8 0.00 0.05 0.05 45 1010.9
20260505160116 25 246 0.0 4.8 0.00 0.05 0.05 45 1011.1
20260505153116 23 0.0 1.6 0.00 0.05 0.05 48 1011.3
20260505152116 23 200 1.6 14.5 0.00 0.05 0.05 47 1011.6
20260505151115 23 0.0 0.0 0.00 0.05 0.05 52 1011.4
20260505150116 22 0.0 0.0 0.00 0.05 0.05 51 1011.4